Flag Weather past 2 weeks in Helmstedt, Lower Saxony, Germany

Now
45 °F

Sunny.


Feels Like: 40 °F
Forecast: 39 / 50 °F
Wind: 9 mph from Southeast

Location: Braunschweig

Current Time: Nov 22, 2014 at 3:50:11 PM

Latest Report: Nov 22, 2014 at 3:20 PM


Visibility: 10 mi

Pressure: 30.15 "Hg

Humidity: 87%

Dew point: 41 °F

Location of HelmstedtLocation

Historic Weather in Helmstedt — Graph

°F

Helmstedt temperature yesterday

Maximum temperature yesterday: 45 °F (at 12:20 PM)
Minimum temperature yesterday: 39 °F (at 6:50 AM)
Average temperature yesterday: 42 °F

Past Weeks' High & Low Weather Summary

 TemperatureHumidityPressure
High55 °F (Nov 8, 12:20 PM)100% (Nov 9, 7:50 AM)30.36 "Hg (Nov 9, 7:50 AM)
Low34 °F (Nov 11, 6:50 AM)62% (Nov 7, 3:20 PM)29.50 "Hg (Nov 16, 1:20 PM)
Average47 °F94%29.91 "Hg
* Reported Nov 7 2:20 PM — Nov 22 2:50 PM, Helmstedt, Weather by CustomWeather, © 2014

Note: Actual official high and low records may vary slightly from our data, if they occured in-between our weather recording intervals... More about our weather records

Advertising

Helmstedt weather history for previous 24 hours

 ConditionsComfort  
Time TempWeatherWind HumidityBarometerVisibility
2:50 PM
Nov 22
45 °FSunny.10 mph87%30.15 "Hg10 mi
2:20 PM46 °FSunny.8 mph82%30.15 "Hg10 mi
1:50 PM45 °FSunny.7 mph87%30.15 "Hg10 mi
1:20 PM45 °FSunny.8 mph81%30.15 "Hg10 mi
12:50 PM45 °FSunny.9 mph81%30.15 "Hg10 mi
12:20 PM45 °FSunny.12 mph81%30.18 "Hg10 mi
11:20 AM43 °FSunny.12 mph87%30.18 "Hg10 mi
10:20 AM41 °FSunny.12 mph87%30.18 "Hg10 mi
9:20 AM39 °FSunny.12 mph93%30.18 "Hg10 mi
8:50 AM37 °FClear.10 mph100%30.18 "Hg4 mi
8:20 AM37 °FClear.8 mph100%30.18 "Hg6 mi
7:50 AM37 °FSunny.8 mph100%30.18 "Hg10 mi
9:20 PM
Nov 21
41 °FOvercast.8 mph87%30.24 "HgN/A
8:50 PM41 °FOvercast.8 mph87%30.24 "HgN/A
8:20 PM43 °FOvercast.7 mph81%30.24 "HgN/A
7:50 PM43 °FPassing clouds.9 mph81%30.24 "HgN/A
7:20 PM43 °FPassing clouds.8 mph87%30.24 "HgN/A
6:50 PM43 °FPassing clouds.9 mph87%30.27 "HgN/A
6:20 PM43 °FPassing clouds.8 mph93%30.24 "HgN/A
5:50 PM43 °FPassing clouds.8 mph87%30.24 "HgN/A
5:20 PM43 °FPassing clouds.8 mph93%30.24 "HgN/A
4:50 PM43 °FPassing clouds.8 mph93%30.24 "HgN/A
4:20 PM43 °FPassing clouds.8 mph93%30.24 "HgN/A
3:50 PM43 °FPartly sunny.7 mph93%30.27 "HgN/A
3:20 PM43 °FPartly sunny.8 mph93%30.27 "HgN/A
Weather by CustomWeather, © 2014

See weather overviewHow to use our weather pages